ENT1943 EPKT-LTFE

Flight info

Callsign ENT1943
Flight time N/A
Altitude 39000
Route REGTO DCT RAZEC DCT KEKED DCT NARKA DCT OSTOV DCT RODIP DCT BELGI UN131 DUGLA UG80 IMR/N0395F270 G80 OKESA
Aircraft B38M/M-SDE1FGHILORVWXY/HB1

Departure

Time 2026-05-01 08:14
Airport Katowice Wojciech Korfanty International Airport (EPKT)

Arrival

Time N/A
Airport Milas Bodrum International Airport (LTFE)
Time Latitude Longitude Altitude Speed Heading
2026-05-01 07:55 50.47149 19.08408 1001 ft 0 kts 180°
2026-05-01 08:05 50.47150 19.08408 1001 ft 1 kts 180°
2026-05-01 08:05 50.47174 19.08408 1001 ft 4 kts 180°
2026-05-01 08:06 50.47221 19.08404 1001 ft 4 kts 149°
2026-05-01 08:06 50.47233 19.08336 1001 ft 3 kts 90°
2026-05-01 08:07 50.47233 19.08332 1001 ft 0 kts 90°
2026-05-01 08:09 50.47233 19.08340 1001 ft 2 kts 90°
2026-05-01 08:09 50.47233 19.08411 1001 ft 12 kts 90°
2026-05-01 08:10 50.47231 19.08865 1001 ft 26 kts 89°
2026-05-01 08:10 50.47230 19.09263 1001 ft 28 kts 90°
2026-05-01 08:12 50.47420 19.10395 1001 ft 3 kts 51°
2026-05-01 08:12 50.47439 19.10427 1001 ft 5 kts 37°
2026-05-01 08:12 50.47542 19.10447 1001 ft 10 kts 357°
2026-05-01 08:13 50.47594 19.10364 1000 ft 13 kts 277°
2026-05-01 08:13 50.47595 19.10208 1000 ft 18 kts 270°
2026-05-01 08:13 50.47601 19.08183 1014 ft 170 kts 270°
2026-05-01 08:14 50.47616 19.06208 1805 ft 184 kts 269°
2026-05-01 08:14 50.47617 19.04249 3038 ft 182 kts 269°
2026-05-01 08:14 50.47618 19.02153 3718 ft 203 kts 268°
2026-05-01 08:14 50.47185 18.99914 4262 ft 234 kts 232°
2026-05-01 08:15 50.45806 18.98462 5080 ft 245 kts 193°
2026-05-01 08:15 50.42577 19.00312 6764 ft 277 kts 127°
2026-05-01 08:15 50.41460 19.02829 7721 ft 285 kts 128°
2026-05-01 08:16 50.40212 19.05268 8725 ft 289 kts 130°
2026-05-01 08:16 50.38891 19.07682 9673 ft 295 kts 132°
2026-05-01 08:16 50.37507 19.10100 10528 ft 303 kts 133°
2026-05-01 08:16 50.36040 19.12581 11163 ft 317 kts 134°
2026-05-01 08:17 50.34504 19.15127 11843 ft 326 kts 134°
2026-05-01 08:17 50.32929 19.17724 12608 ft 331 kts 134°
2026-05-01 08:17 50.31362 19.20316 13352 ft 334 kts 134°
2026-05-01 08:17 50.29756 19.22969 14063 ft 338 kts 134°
2026-05-01 08:18 50.28131 19.25653 14757 ft 341 kts 134°
2026-05-01 08:18 50.24832 19.31091 16035 ft 348 kts 134°
2026-05-01 08:19 50.21473 19.36619 17193 ft 354 kts 134°
2026-05-01 08:19 50.19772 19.39414 17736 ft 357 kts 134°
2026-05-01 08:19 50.18056 19.42227 18252 ft 359 kts 134°
2026-05-01 08:19 50.16324 19.45065 18738 ft 362 kts 134°
2026-05-01 08:20 50.14580 19.47919 19214 ft 364 kts 134°
2026-05-01 08:20 50.12825 19.50789 19666 ft 367 kts 134°
2026-05-01 08:20 50.11058 19.53674 20091 ft 369 kts 134°
2026-05-01 08:20 50.09279 19.56576 20502 ft 372 kts 134°
2026-05-01 08:21 50.07487 19.59495 20900 ft 374 kts 134°
2026-05-01 08:21 50.05684 19.62428 21282 ft 376 kts 134°
2026-05-01 08:21 50.03873 19.65371 21655 ft 378 kts 134°
2026-05-01 08:21 50.02047 19.68334 22011 ft 380 kts 134°
2026-05-01 08:22 50.00213 19.71308 22362 ft 382 kts 134°
2026-05-01 08:22 49.98371 19.74293 22697 ft 384 kts 134°
2026-05-01 08:22 49.96518 19.77292 23011 ft 386 kts 134°
2026-05-01 08:22 49.94653 19.80306 23332 ft 388 kts 134°
2026-05-01 08:23 49.93412 19.82309 23537 ft 389 kts 134°
2026-05-01 08:23 49.91534 19.85339 23834 ft 391 kts 134°
2026-05-01 08:23 49.89645 19.88380 24127 ft 392 kts 134°
2026-05-01 08:23 49.87746 19.91434 24403 ft 394 kts 134°
2026-05-01 08:24 49.85840 19.94498 24678 ft 396 kts 134°
2026-05-01 08:24 49.83924 19.97573 24944 ft 397 kts 134°
2026-05-01 08:24 49.82002 20.00654 25196 ft 399 kts 134°
2026-05-01 08:24 49.80070 20.03745 25429 ft 400 kts 134°
2026-05-01 08:25 49.78130 20.06845 25661 ft 402 kts 134°
2026-05-01 08:25 49.76184 20.09953 25886 ft 403 kts 134°
2026-05-01 08:25 49.74229 20.13070 26095 ft 404 kts 134°
2026-05-01 08:25 49.72267 20.16194 26305 ft 406 kts 134°
2026-05-01 08:26 49.70299 20.19326 26511 ft 407 kts 134°
2026-05-01 08:26 49.68324 20.22464 26703 ft 408 kts 134°
2026-05-01 08:26 49.66342 20.25610 26887 ft 409 kts 134°
2026-05-01 08:26 49.64353 20.28761 27076 ft 410 kts 134°
2026-05-01 08:27 49.62358 20.31919 27249 ft 411 kts 134°
2026-05-01 08:27 49.60359 20.35078 27407 ft 413 kts 135°
2026-05-01 08:27 49.58351 20.38249 27572 ft 414 kts 135°
2026-05-01 08:27 49.56339 20.41421 27725 ft 415 kts 135°
2026-05-01 08:28 49.54319 20.44602 27879 ft 416 kts 135°
2026-05-01 08:28 49.52293 20.47787 28026 ft 417 kts 135°
2026-05-01 08:28 49.50264 20.50975 28172 ft 418 kts 135°
2026-05-01 08:28 49.48255 20.54127 28317 ft 418 kts 135°
2026-05-01 08:29 49.46216 20.57322 28454 ft 419 kts 135°
2026-05-01 08:29 49.44170 20.60523 28586 ft 420 kts 135°
2026-05-01 08:29 49.42120 20.63727 28709 ft 421 kts 135°
2026-05-01 08:29 49.40050 20.66909 28821 ft 422 kts 136°
2026-05-01 08:30 49.37948 20.70057 28939 ft 422 kts 136°
2026-05-01 08:30 49.35845 20.73210 29048 ft 423 kts 136°
2026-05-01 08:30 49.33738 20.76370 29155 ft 424 kts 136°
2026-05-01 08:31 49.29515 20.82692 29355 ft 425 kts 136°
2026-05-01 08:31 49.27394 20.85860 29459 ft 426 kts 136°
2026-05-01 08:31 49.25274 20.89025 29552 ft 426 kts 136°
2026-05-01 08:32 49.21018 20.95365 29730 ft 428 kts 136°
2026-05-01 08:32 49.16749 21.01708 29903 ft 429 kts 136°
2026-05-01 08:33 49.12274 21.07707 30061 ft 428 kts 150°
2026-05-01 08:33 49.09537 21.09470 30136 ft 428 kts 165°
2026-05-01 08:33 49.06651 21.10611 30163 ft 429 kts 166°
2026-05-01 08:34 49.00836 21.12738 30299 ft 430 kts 167°
2026-05-01 08:34 48.94993 21.14757 30434 ft 431 kts 167°
2026-05-01 08:35 48.89136 21.16748 30555 ft 432 kts 168°
2026-05-01 08:35 48.83263 21.18736 30685 ft 433 kts 168°
2026-05-01 08:36 48.77377 21.20725 30797 ft 433 kts 168°
2026-05-01 08:36 48.71524 21.22696 30897 ft 434 kts 168°
2026-05-01 08:37 48.65624 21.24680 31006 ft 434 kts 168°
2026-05-01 08:37 48.59740 21.26653 31222 ft 432 kts 168°
2026-05-01 08:37 48.56816 21.27631 31339 ft 430 kts 168°
2026-05-01 08:38 48.53895 21.28608 31455 ft 429 kts 168°
2026-05-01 08:38 48.51029 21.29813 31568 ft 427 kts 162°
2026-05-01 08:38 48.48196 21.31153 31671 ft 427 kts 163°
2026-05-01 08:38 48.45340 21.32472 31559 ft 432 kts 163°
2026-05-01 08:39 48.42453 21.33791 31463 ft 435 kts 163°
2026-05-01 08:39 48.36640 21.36433 31464 ft 438 kts 163°
2026-05-01 08:40 48.27885 21.40395 31550 ft 439 kts 163°
2026-05-01 08:40 48.22035 21.43036 31628 ft 439 kts 163°
2026-05-01 08:41 48.16178 21.45672 31699 ft 440 kts 163°
2026-05-01 08:41 48.10315 21.48305 31761 ft 440 kts 163°
2026-05-01 08:42 48.04445 21.50935 31821 ft 441 kts 163°
2026-05-01 08:42 47.98570 21.53561 31920 ft 441 kts 163°
2026-05-01 08:43 47.92684 21.56186 32027 ft 442 kts 163°
2026-05-01 08:43 47.86789 21.58808 32135 ft 442 kts 163°
2026-05-01 08:44 47.80884 21.61429 32230 ft 443 kts 163°
2026-05-01 08:44 47.74968 21.64048 32320 ft 444 kts 163°
2026-05-01 08:45 47.69046 21.66664 32412 ft 444 kts 163°
2026-05-01 08:45 47.63115 21.69277 32499 ft 445 kts 163°
2026-05-01 08:46 47.57174 21.71889 32582 ft 445 kts 163°
2026-05-01 08:46 47.51226 21.74497 32647 ft 446 kts 163°
2026-05-01 08:47 47.45271 21.77102 32729 ft 447 kts 163°
2026-05-01 08:47 47.39308 21.79705 32800 ft 447 kts 164°
2026-05-01 08:48 47.33359 21.82297 32997 ft 444 kts 164°
2026-05-01 08:48 47.27467 21.84858 33000 ft 445 kts 164°
2026-05-01 08:49 47.21807 21.88486 33010 ft 446 kts 152°
2026-05-01 08:49 47.16346 21.92823 33003 ft 446 kts 152°
2026-05-01 08:50 47.10884 21.97190 33000 ft 447 kts 152°
2026-05-01 08:50 47.05410 22.01563 33000 ft 449 kts 152°
2026-05-01 08:51 46.99925 22.05934 33002 ft 449 kts 152°
2026-05-01 08:51 46.94425 22.10306 33002 ft 450 kts 152°
2026-05-01 08:52 46.88922 22.14671 32999 ft 450 kts 152°
2026-05-01 08:52 46.83409 22.19033 33000 ft 451 kts 152°
2026-05-01 08:53 46.77890 22.23391 33000 ft 451 kts 152°
2026-05-01 08:53 46.72369 22.27739 32998 ft 451 kts 152°
2026-05-01 08:54 46.66846 22.32078 33002 ft 451 kts 152°
2026-05-01 08:54 46.61316 22.36414 33001 ft 452 kts 152°
2026-05-01 08:55 46.55777 22.40746 33003 ft 453 kts 152°
2026-05-01 08:55 46.50219 22.45083 33006 ft 454 kts 152°
2026-05-01 08:56 46.44642 22.49423 32994 ft 455 kts 152°
2026-05-01 08:56 46.39056 22.53762 32999 ft 455 kts 152°
2026-05-01 08:57 46.33472 22.58088 32999 ft 455 kts 152°
2026-05-01 08:57 46.27891 22.62402 32999 ft 455 kts 152°
2026-05-01 08:58 46.22311 22.66706 33000 ft 455 kts 152°
2026-05-01 08:58 46.16728 22.71001 33001 ft 455 kts 152°
2026-05-01 08:59 46.11146 22.75286 33001 ft 455 kts 152°
2026-05-01 08:59 46.05596 22.79536 32999 ft 455 kts 152°
2026-05-01 09:00 46.00008 22.83806 33001 ft 455 kts 152°
2026-05-01 09:00 45.94418 22.88069 33001 ft 455 kts 152°
2026-05-01 09:01 45.88831 22.92319 32999 ft 454 kts 152°
2026-05-01 09:01 45.83244 22.96540 32998 ft 454 kts 155°
2026-05-01 09:02 45.77433 23.00063 32999 ft 454 kts 157°
2026-05-01 09:02 45.71625 23.03627 33001 ft 454 kts 157°
2026-05-01 09:03 45.65810 23.07206 33001 ft 455 kts 157°
2026-05-01 09:03 45.59989 23.10783 32999 ft 455 kts 157°
2026-05-01 09:04 45.54174 23.14349 33002 ft 455 kts 157°
2026-05-01 09:04 45.48350 23.17910 33000 ft 455 kts 157°
2026-05-01 09:05 45.42525 23.21465 32999 ft 455 kts 157°
2026-05-01 09:05 45.36699 23.25013 33002 ft 455 kts 157°
2026-05-01 09:06 45.30875 23.28551 32998 ft 455 kts 157°
2026-05-01 09:06 45.25047 23.32085 32999 ft 455 kts 157°
2026-05-01 09:07 45.19216 23.35612 33001 ft 455 kts 157°
2026-05-01 09:07 45.13384 23.39132 32998 ft 455 kts 157°
2026-05-01 09:08 45.07555 23.42642 32999 ft 455 kts 157°
2026-05-01 09:08 45.01728 23.46143 33001 ft 455 kts 157°
2026-05-01 09:09 44.95906 23.49633 32999 ft 455 kts 157°
2026-05-01 09:09 44.91064 23.52530 33003 ft 455 kts 157°
2026-05-01 09:10 44.85233 23.56012 32999 ft 455 kts 157°
2026-05-01 09:10 44.79403 23.59485 33002 ft 455 kts 157°
2026-05-01 09:11 44.73572 23.62951 32998 ft 455 kts 157°
2026-05-01 09:11 44.67737 23.66412 33001 ft 455 kts 157°
2026-05-01 09:12 44.61899 23.69868 32999 ft 455 kts 157°
2026-05-01 09:12 44.56063 23.73314 33000 ft 455 kts 157°
2026-05-01 09:13 44.50227 23.76753 32999 ft 455 kts 158°